TimePST,TemperatureF,Dew PointF,Humidity,Sea Level PressureIn,VisibilityMPH,Wind Direction,Wind SpeedMPH,Gust SpeedMPH,PrecipitationIn,Events,Conditions,WindDirDegrees,DateUTC
12:56 AM,39.9,10.9,31,30.08,10.0,Calm,Calm,-,N/A,,Clear,0,2012-12-11 08:56:00
1:56 AM,37.0,9.0,31,30.08,10.0,NNW,5.8,-,N/A,,Clear,330,2012-12-11 09:56:00
2:56 AM,30.0,10.9,45,30.09,10.0,NE,3.5,-,N/A,,Clear,40,2012-12-11 10:56:00
3:56 AM,30.9,10.9,43,30.09,10.0,Calm,Calm,-,N/A,,Clear,0,2012-12-11 11:56:00
4:56 AM,26.1,10.0,51,30.10,10.0,Calm,Calm,-,N/A,,Clear,0,2012-12-11 12:56:00
5:56 AM,24.1,10.0,55,30.10,10.0,NW,5.8,-,N/A,,Clear,320,2012-12-11 13:56:00
6:56 AM,25.0,12.0,58,30.11,10.0,WNW,6.9,-,N/A,,Clear,300,2012-12-11 14:56:00
7:56 AM,30.0,12.9,49,30.09,10.0,West,3.5,-,N/A,,Clear,280,2012-12-11 15:56:00
8:56 AM,41.0,14.0,33,30.11,10.0,NNE,3.5,-,N/A,,Clear,30,2012-12-11 16:56:00
9:56 AM,48.0,12.0,24,30.05,10.0,Calm,Calm,-,N/A,,Clear,0,2012-12-11 17:56:00
10:56 AM,51.1,12.0,21,30.01,10.0,Calm,Calm,-,N/A,,Clear,0,2012-12-11 18:56:00
11:56 AM,54.0,10.9,18,29.97,10.0,Variable,3.5,-,N/A,,Clear,0,2012-12-11 19:56:00
12:56 PM,55.0,10.9,17,29.92,10.0,South,5.8,-,N/A,,Clear,180,2012-12-11 20:56:00
1:56 PM,57.9,10.9,16,29.88,10.0,South,9.2,-,N/A,,Clear,190,2012-12-11 21:56:00
2:56 PM,59.0,12.9,16,29.88,10.0,South,6.9,17.3,N/A,,Clear,170,2012-12-11 22:56:00
3:56 PM,57.0,14.0,18,29.86,10.0,SSE,12.7,-,N/A,,Clear,160,2012-12-11 23:56:00
4:56 PM,51.1,14.0,23,29.87,10.0,SSE,5.8,-,N/A,,Clear,150,2012-12-12 00:56:00
5:56 PM,44.1,14.0,30,29.89,10.0,South,5.8,-,N/A,,Clear,180,2012-12-12 01:56:00
6:56 PM,46.0,16.0,30,29.86,10.0,Calm,Calm,-,N/A,,Clear,0,2012-12-12 02:56:00
7:56 PM,35.1,14.0,42,29.86,10.0,North,3.5,-,N/A,,Clear,360,2012-12-12 03:56:00
8:56 PM,33.1,12.9,43,29.82,10.0,Calm,Calm,-,N/A,,Clear,0,2012-12-12 04:56:00
9:56 PM,30.9,12.9,47,29.80,10.0,North,8.1,-,N/A,,Clear,350,2012-12-12 05:56:00
10:56 PM,28.9,12.9,51,29.78,10.0,NNW,4.6,-,N/A,,Clear,330,2012-12-12 06:56:00
11:56 PM,25.0,12.9,60,29.77,10.0,WSW,9.2,-,N/A,,Clear,250,2012-12-12 07:56:00